DW9169 Weather Reports


Display with metric or nautical units.
time (UTC)temp
F
wind
direction
speed
MPH
gust
MPH
rain 1hr
in
rain 24hr
in
rain mn
in
humidity
%
barometer
mb
20260507104908 57 0 1.0 2.0 0.00 0.02 0.02 75 1015.0
20260507104408 58 59 1.0 2.0 0.00 0.02 0.02 76 1015.0
20260507103908 58 249 1.0 6.0 0.00 0.02 0.02 77 1015.1
20260507103408 57 200 1.0 3.0 0.00 0.02 0.02 77 1015.0
20260507102908 57 272 2.0 5.0 0.00 0.02 0.02 79 1015.0
20260507102408 56 270 1.0 3.0 0.00 0.02 0.02 79 1015.0
20260507101908 56 41 1.0 3.0 0.00 0.02 0.02 78 1015.0
20260507101408 56 86 1.0 3.0 0.00 0.02 0.02 76 1015.0
20260507100908 56 303 1.0 5.0 0.00 0.02 0.02 79 1015.0
20260507100408 55 63 1.0 3.0 0.00 0.02 0.02 79 1015.1
20260507095908 55 234 1.0 2.0 0.00 0.02 0.02 79 1015.0
20260507095408 55 277 0.0 1.0 0.00 0.02 0.02 78 1015.0
20260507094908 55 265 1.0 3.0 0.00 0.02 0.02 80 1015.0
20260507094408 55 245 2.0 3.0 0.00 0.02 0.02 78 1014.9
20260507093908 55 63 2.0 3.0 0.00 0.02 0.02 78 1015.0
20260507093408 55 63 2.0 3.0 0.00 0.02 0.02 81 1014.9
20260507092908 55 271 1.0 3.0 0.00 0.03 0.02 82 1014.9
20260507091907 54 104 2.0 3.0 0.00 0.03 0.02 81 1014.8
20260507091408 54 65 2.0 3.0 0.00 0.04 0.02 82 1014.8
20260507090908 54 17 1.0 3.0 0.00 0.04 0.02 82 1014.8
20260507090408 54 68 1.0 2.0 0.00 0.04 0.02 84 1014.8
20260507085908 54 129 0.0 0.0 0.00 0.05 0.02 84 1014.8
20260507085408 53 3 0.0 0.0 0.00 0.05 0.02 84 1014.8
20260507084908 53 54 1.0 3.0 0.00 0.06 0.02 85 1014.8
20260507084409 53 63 0.0 1.0 0.00 0.06 0.02 85 1014.7
20260507083908 53 46 1.0 2.0 0.00 0.06 0.02 85 1014.8
20260507083408 53 224 0.0 1.0 0.00 0.06 0.02 86 1014.7
20260507082908 53 269 1.0 2.0 0.00 0.06 0.02 86 1014.7
20260507082408 52 78 0.0 1.0 0.00 0.06 0.02 86 1014.7
20260507081907 52 65 1.0 1.0 0.00 0.06 0.02 87 1014.6
20260507080909 52 7 0.0 0.0 0.00 0.06 0.02 87 1014.6
20260507080408 51 303 0.0 0.0 0.00 0.06 0.02 87 1014.5
20260507075908 51 294 0.0 0.0 0.00 0.06 0.02 87 1014.5
20260507075408 50 36 0.0 0.0 0.00 0.06 0.02 87 1014.5
20260507074407 51 69 0.0 0.0 0.00 0.06 0.02 87 1014.5
20260507073908 50 245 0.0 0.0 0.00 0.06 0.02 88 1014.4
20260507073408 50 251 0.0 0.0 0.00 0.06 0.02 88 1014.4
20260507072908 50 251 0.0 0.0 0.00 0.06 0.02 88 1014.4
20260507072408 49 257 0.0 0.0 0.00 0.06 0.02 88 1014.4
20260507071908 49 278 0.0 0.0 0.00 0.07 0.02 88 1014.4
20260507070907 49 279 0.0 0.0 0.00 0.07 0.02 88 1014.3
20260507070408 49 285 0.0 0.0 0.00 0.07 0.02 88 1014.3
20260507065908 49 5 0.0 0.0 0.00 0.07 0.02 88 1014.3
20260507065408 48 5 0.0 0.0 0.00 0.07 0.02 88 1014.2
20260507064908 48 5 0.0 0.0 0.00 0.07 0.02 88 1014.2
20260507064407 48 5 0.0 0.0 0.00 0.07 0.02 88 1014.2
20260507063908 48 9 0.0 0.0 0.00 0.07 0.02 88 1014.1
20260507063408 48 31 0.0 0.0 0.00 0.08 0.02 88 1014.1
20260507062908 48 31 0.0 0.0 0.00 0.09 0.02 88 1014.0
20260507062409 48 31 0.0 0.0 0.00 0.09 0.02 88 1014.0
20260507061908 48 31 0.0 0.0 0.00 0.09 0.02 88 1013.9
20260507061408 48 31 0.0 0.0 0.00 0.10 0.02 88 1013.9
20260507060908 48 31 0.0 0.0 0.00 0.10 0.02 88 1013.9
20260507060408 48 56 0.0 0.0 0.00 0.10 0.02 88 1013.9
20260507055907 47 56 0.0 0.0 0.00 0.10 0.02 88 1013.8
20260507054907 47 56 0.0 0.0 0.00 0.11 0.02 89 1013.7
20260507054408 47 56 0.0 0.0 0.00 0.12 0.02 89 1013.6
20260507053908 47 56 0.0 0.0 0.00 0.13 0.02 89 1013.6
20260507053408 47 56 0.0 0.0 0.00 0.13 0.02 89 1013.5
20260507052907 47 56 0.0 0.0 0.00 0.13 0.02 89 1013.5
20260507051908 46 56 0.0 0.0 0.00 0.15 0.02 89 1013.4
20260507051408 46 56 0.0 0.0 0.00 0.16 0.02 89 1013.4
20260507050908 46 56 0.0 0.0 0.00 0.16 0.02 89 1013.4
20260507050408 46 56 0.0 0.0 0.00 0.17 0.02 89 1013.3
20260507045908 46 56 0.0 0.0 0.00 0.17 0.02 89 1013.2
20260507045408 46 56 0.0 0.0 0.00 0.17 0.02 89 1013.2
20260507044908 46 56 0.0 0.0 0.00 0.18 0.02 89 1013.1
20260507044407 46 56 0.0 0.0 0.00 0.18 0.02 89 1013.1
20260507043908 46 56 0.0 0.0 0.00 0.19 0.02 89 1013.0
20260507043408 46 56 0.0 0.0 0.00 0.19 0.02 89 1013.0
20260507042908 46 56 0.0 0.0 0.00 0.20 0.02 89 1013.0
20260507042408 46 56 0.0 0.0 0.00 0.20 0.02 89 1013.0
20260507041408 46 56 0.0 0.0 0.01 0.20 0.02 89 1012.9
20260507040408 46 56 0.0 0.0 0.01 0.20 0.02 89 1012.8
20260507035908 46 56 0.0 0.0 0.01 0.20 0.02 89 1012.8
20260507035408 46 56 0.0 0.0 0.01 0.20 0.02 89 1012.8
20260507034907 46 56 0.0 0.0 0.01 0.21 0.02 89 1012.8
20260507034408 46 56 0.0 0.0 0.01 0.21 0.02 89 1012.8
20260507033907 46 56 0.0 0.0 0.01 0.21 0.02 89 1012.7
20260507033407 46 56 0.0 0.0 0.01 0.22 0.02 89 1012.7
20260507032908 46 56 0.0 0.0 0.01 0.23 0.02 89 1012.7
20260507031907 46 56 0.0 0.0 0.00 0.22 0.01 89 1012.7
20260507031408 46 56 0.0 0.0 0.00 0.23 0.01 89 1012.6
20260507030407 46 56 0.0 0.0 0.01 0.23 0.01 89 1012.6
20260507025908 46 56 0.0 0.0 0.01 0.23 0.01 89 1012.6
20260507025408 45 56 0.0 0.0 0.01 0.23 0.01 89 1012.6
20260507024908 45 56 0.0 0.0 0.01 0.23 0.01 89 1012.6
20260507024409 45 56 0.0 0.0 0.01 0.23 0.01 89 1012.6
20260507023908 45 56 0.0 0.0 0.01 0.23 0.01 89 1012.5
20260507022908 45 56 0.0 0.0 0.01 0.24 0.01 89 1012.5
20260507021907 45 56 0.0 0.0 0.01 0.24 0.01 89 1012.5
20260507020907 45 56 0.0 0.0 0.00 0.24 0.00 89 1012.4
20260507020408 45 56 0.0 0.0 0.00 0.24 0.00 89 1012.4
20260507015908 45 56 0.0 0.0 0.00 0.24 0.00 89 1012.3
20260507015408 45 56 0.0 0.0 0.00 0.24 0.00 89 1012.2
20260507014909 45 56 0.0 0.0 0.00 0.24 0.00 89 1012.2
20260507014407 45 56 0.0 0.0 0.00 0.24 0.00 89 1012.2
20260507013907 45 56 0.0 0.0 0.00 0.24 0.00 89 1012.2
20260507013408 45 56 0.0 0.0 0.00 0.25 0.00 89 1012.2
20260507012908 45 56 0.0 0.0 0.00 0.25 0.00 89 1012.1
20260507012407 45 56 0.0 0.0 0.00 0.25 0.00 89 1012.1
20260507011409 45 56 0.0 0.0 0.00 0.26 0.00 89 1012.2
20260507010408 45 56 0.0 0.0 0.00 0.27 0.00 89 1012.2
20260507005907 45 56 0.0 0.0 0.00 0.27 0.00 89 1012.2
20260507004907 44 56 0.0 0.0 0.00 0.28 0.00 89 1012.1
20260507004407 45 56 0.0 0.0 0.00 0.28 0.00 89 1012.0
20260507003908 44 56 0.0 0.0 0.00 0.28 0.00 89 1012.1
20260507003407 44 56 0.0 0.0 0.00 0.28 0.00 89 1012.1
20260507002907 44 56 0.0 0.0 0.00 0.29 0.00 89 1012.1
20260507001908 44 56 0.0 0.0 0.00 0.29 0.00 89 1012.0
20260507001409 44 56 0.0 0.0 0.00 0.30 0.00 89 1012.0
20260507000910 44 56 0.0 0.0 0.00 0.30 0.00 88 1012.0
20260507000413 44 56 0.0 0.0 0.00 0.30 0.00 88 1011.9
20260506235908 44 56 0.0 0.0 0.00 0.31 0.00 88 1011.9
20260506235409 44 56 0.0 0.0 0.00 0.31 0.00 88 1011.9
20260506234907 44 56 0.0 0.0 0.00 0.31 0.00 88 1011.9
20260506234408 44 56 0.0 0.0 0.00 0.31 0.00 88 1011.9
20260506233407 44 56 0.0 0.0 0.00 0.32 0.00 88 1011.8
20260506232407 44 56 0.0 0.0 0.00 0.32 0.00 88 1011.7
20260506231908 44 56 0.0 0.0 0.00 0.33 0.00 88 1011.7
20260506231407 44 56 0.0 0.0 0.00 0.33 0.00 88 1011.7
20260506230908 44 56 0.0 0.0 0.00 0.33 0.00 88 1011.6
20260506230408 44 56 0.0 0.0 0.00 0.34 0.00 88 1011.6
20260506225908 44 56 0.0 0.0 0.00 0.34 0.00 88 1011.5
20260506225408 44 56 0.0 0.0 0.00 0.35 0.00 88 1011.5
20260506224408 44 56 0.0 0.0 0.00 0.35 0.00 88 1011.5
20260506223908 45 56 0.0 0.0 0.00 0.35 0.00 88 1011.4
20260506223407 45 73 0.0 0.0 0.00 0.35 0.00 88 1011.3
20260506222907 45 73 0.0 0.0 0.00 0.35 0.00 88 1011.3
20260506222408 45 73 0.0 0.0 0.00 0.35 0.00 88 1011.2
20260506221408 46 73 0.0 0.0 0.00 0.35 0.00 88 1011.2
20260506220908 46 75 0.0 0.0 0.00 0.36 0.00 87 1011.1
20260506220407 46 75 0.0 0.0 0.00 0.36 0.00 88 1011.2
20260506215909 46 75 0.0 0.0 0.00 0.36 0.36 87 1011.1
20260506215407 47 76 0.0 0.0 0.00 0.36 0.36 88 1011.1
20260506214908 47 77 0.0 0.0 0.00 0.37 0.36 87 1011.1
20260506214407 47 68 0.0 0.0 0.00 0.37 0.36 87 1011.1
20260506213408 48 73 0.0 0.0 0.00 0.38 0.36 87 1011.0
20260506212908 48 74 0.0 0.0 0.00 0.38 0.36 87 1011.0
20260506212407 48 71 1.0 2.0 0.00 0.39 0.36 87 1010.9
20260506211908 48 58 0.0 3.0 0.00 0.39 0.36 88 1010.9
20260506211408 48 75 1.0 3.0 0.00 0.39 0.36 88 1010.9
20260506210908 48 44 0.0 0.0 0.00 0.39 0.36 87 1010.8
20260506210407 48 42 0.0 0.0 0.00 0.40 0.36 87 1010.8
20260506205908 49 39 0.0 0.0 0.00 0.40 0.36 87 1010.7
20260506205407 49 39 0.0 0.0 0.00 0.40 0.36 87 1010.7
20260506204907 49 39 0.0 0.0 0.00 0.40 0.36 87 1010.6
20260506204408 49 39 0.0 0.0 0.00 0.41 0.36 87 1010.6
20260506203907 49 37 0.0 0.0 0.00 0.41 0.36 87 1010.5
20260506203407 49 37 0.0 0.0 0.00 0.41 0.36 87 1010.5
20260506202907 49 77 0.0 0.0 0.00 0.42 0.36 87 1010.4
20260506202407 49 74 0.0 0.0 0.00 0.42 0.36 87 1010.3
20260506201908 49 76 0.0 0.0 0.00 0.43 0.36 87 1010.3
20260506200907 50 49 0.0 0.0 0.00 0.43 0.36 87 1010.3
20260506200408 50 45 0.0 0.0 0.00 0.43 0.36 87 1010.2
20260506195907 50 31 0.0 0.0 0.00 0.43 0.36 87 1010.1
20260506195408 50 31 0.0 0.0 0.00 0.43 0.36 87 1010.1
20260506194908 50 10 0.0 0.0 0.00 0.43 0.36 87 1010.0
20260506194407 50 355 0.0 0.0 0.00 0.44 0.36 87 1010.0
20260506193907 50 355 0.0 0.0 0.00 0.44 0.36 87 1009.9
20260506193408 51 322 0.0 0.0 0.00 0.44 0.36 87 1009.9
20260506192407 51 322 0.0 0.0 0.00 0.45 0.36 87 1009.8
20260506191907 51 321 0.0 0.0 0.00 0.45 0.36 87 1009.8
20260506191407 51 321 0.0 0.0 0.00 0.45 0.36 87 1009.7
20260506190407 51 321 0.0 0.0 0.00 0.46 0.36 87 1009.6
20260506185907 51 321 0.0 0.0 0.00 0.46 0.36 87 1009.5
20260506185408 51 321 0.0 0.0 0.00 0.46 0.36 87 1009.5
20260506184407 51 355 0.0 0.0 0.00 0.46 0.36 87 1009.4
20260506183907 51 355 0.0 0.0 0.00 0.46 0.36 87 1009.3
20260506183407 51 355 0.0 0.0 0.00 0.46 0.36 87 1009.3
20260506181908 52 355 0.0 0.0 0.00 0.47 0.36 87 1009.1
20260506181407 52 355 0.0 0.0 0.00 0.47 0.36 87 1009.1
20260506180908 52 355 0.0 0.0 0.00 0.48 0.36 87 1009.0
20260506180408 52 355 0.0 0.0 0.00 0.48 0.36 87 1009.0
20260506175908 52 355 0.0 0.0 0.00 0.48 0.36 87 1008.9
20260506175407 52 355 0.0 0.0 0.00 0.49 0.36 87 1008.9
20260506174907 52 355 0.0 0.0 0.00 0.49 0.36 87 1008.8
20260506174408 52 355 0.0 0.0 0.00 0.49 0.36 87 1008.7
20260506173407 52 355 0.0 0.0 0.00 0.49 0.36 87 1008.7
20260506172908 52 355 0.0 0.0 0.00 0.49 0.36 87 1008.6
20260506172408 52 355 0.0 0.0 0.00 0.49 0.36 87 1008.5
20260506171907 52 351 0.0 0.0 0.00 0.49 0.36 87 1008.5
20260506170908 53 23 0.0 0.0 0.00 0.49 0.36 87 1008.4
20260506170409 53 121 0.0 0.0 0.00 0.49 0.36 87 1008.4
20260506165407 53 121 0.0 0.0 0.00 0.49 0.36 87 1008.3
20260506164407 53 121 0.0 0.0 0.00 0.49 0.36 87 1008.2
20260506163907 53 121 0.0 0.0 0.00 0.49 0.36 87 1008.2
20260506163407 53 122 0.0 0.0 0.00 0.49 0.36 87 1008.2
20260506162907 53 99 0.0 0.0 0.00 0.49 0.36 87 1008.2
20260506162407 53 99 0.0 0.0 0.00 0.49 0.36 87 1008.2
20260506161407 53 99 0.0 0.0 0.00 0.49 0.36 87 1008.3
20260506160907 53 107 0.0 0.0 0.00 0.49 0.36 87 1008.2
20260506160407 53 111 0.0 0.0 0.00 0.49 0.36 87 1008.2
20260506155907 53 99 0.0 0.0 0.00 0.49 0.36 87 1008.2
20260506155407 53 94 0.0 0.0 0.00 0.49 0.36 87 1008.2
20260506154907 53 28 0.0 0.0 0.00 0.49 0.36 87 1008.2
20260506154407 53 345 0.0 0.0 0.00 0.49 0.36 87 1008.2
20260506153907 54 274 0.0 0.0 0.00 0.49 0.36 87 1008.2
20260506153408 54 275 0.0 0.0 0.00 0.49 0.36 87 1008.2
20260506152907 54 275 0.0 0.0 0.00 0.49 0.36 87 1008.1
20260506152407 54 274 0.0 0.0 0.00 0.49 0.36 87 1008.2
20260506151407 53 274 0.0 0.0 0.00 0.49 0.36 87 1008.2
20260506150907 53 275 0.0 0.0 0.00 0.49 0.36 87 1008.2
20260506150408 53 275 0.0 0.0 0.00 0.49 0.36 87 1008.2
20260506145908 54 274 0.0 0.0 0.00 0.49 0.36 87 1008.2
20260506145407 54 274 0.0 0.0 0.00 0.49 0.36 87 1008.2
20260506144907 54 274 0.0 0.0 0.00 0.49 0.36 87 1008.2
20260506144407 54 274 0.0 0.0 0.00 0.49 0.36 87 1008.2
20260506143907 54 274 0.0 0.0 0.00 0.49 0.36 87 1008.1
20260506143407 54 269 0.0 0.0 0.00 0.49 0.36 87 1008.1
20260506142907 54 264 1.0 2.0 0.00 0.49 0.36 87 1008.1
20260506141907 54 265 0.0 0.0 0.00 0.49 0.36 87 1008.1
20260506141408 54 282 0.0 0.0 0.00 0.49 0.36 87 1008.1
20260506140407 54 282 0.0 0.0 0.00 0.49 0.36 87 1008.3
20260506135907 54 276 0.0 0.0 0.00 0.49 0.36 87 1008.3
20260506135407 54 291 0.0 0.0 0.00 0.49 0.36 87 1008.3
20260506134907 54 204 0.0 2.0 0.00 0.49 0.36 87 1008.2
20260506134407 54 22 0.0 0.0 0.00 0.49 0.36 87 1008.2
20260506133907 53 257 0.0 0.0 0.00 0.49 0.36 87 1008.3
20260506133408 53 306 0.0 0.0 0.00 0.49 0.36 87 1008.3
20260506132407 53 303 0.0 0.0 0.00 0.49 0.36 87 1008.2
20260506131907 53 296 0.0 0.0 0.00 0.49 0.36 87 1008.3
20260506130907 53 293 2.0 5.0 0.00 0.49 0.36 87 1008.2
20260506130408 53 282 1.0 3.0 0.00 0.49 0.36 87 1008.2
20260506125907 53 292 1.0 3.0 0.00 0.49 0.36 88 1008.2
20260506125407 53 348 0.0 0.0 0.00 0.49 0.36 88 1008.2
20260506124907 53 24 0.0 2.0 0.00 0.49 0.36 88 1008.1
20260506123907 53 269 1.0 2.0 0.00 0.49 0.36 88 1008.1
20260506123408 53 11 1.0 3.0 0.00 0.49 0.36 88 1008.0
20260506122907 53 297 1.0 2.0 0.00 0.49 0.36 88 1008.0
20260506122408 53 294 1.0 3.0 0.00 0.49 0.36 88 1008.0
20260506121907 53 22 0.0 2.0 0.00 0.49 0.36 88 1007.9
20260506121407 53 0 0.0 3.0 0.00 0.49 0.36 88 1007.9
20260506120908 52 313 0.0 1.0 0.00 0.49 0.36 88 1007.9
20260506120408 52 262 1.0 2.0 0.00 0.49 0.36 88 1007.9
20260506115907 52 350 0.0 2.0 0.00 0.49 0.36 88 1008.0
20260506115407 52 345 0.0 3.0 0.00 0.49 0.36 88 1008.0
20260506114907 52 1 0.0 2.0 0.00 0.49 0.36 88 1007.9
20260506113907 53 34 0.0 3.0 0.00 0.49 0.36 89 1007.9
20260506113407 52 30 1.0 3.0 0.00 0.49 0.36 89 1007.9
20260506112907 52 326 1.0 2.0 0.00 0.49 0.36 89 1007.8
20260506112407 52 52 1.0 3.0 0.00 0.49 0.36 89 1007.9
20260506111908 52 29 1.0 2.0 0.00 0.49 0.36 89 1007.9
20260506111407 52 51 1.0 2.0 0.00 0.49 0.36 89 1007.9
20260506110407 51 33 1.0 7.0 0.00 0.49 0.36 89 1007.9
20260506105908 50 64 0.0 0.0 0.00 0.49 0.36 89 1007.9